Location: Isle of Man Observatory
(54.1776°N, 4.6264°W)
Time: 08:42:05
(UTC+01:00)

Envisat - Visible Passes

Search period start: 01 December 2021 00:00
Search period end: 11 December 2021 00:00
Orbit: 764 x 766 km, 98.2° (Epoch: 30 November)

Date Brightness Start Highest point End Pass type
(mag) Time Alt. Az. Time Alt. Az. Time Alt. Az.
01 Dec 5.6 05:04:56 10° NE 05:08:17 17° E 05:11:37 10° SE visible
01 Dec 2.9 06:42:54 10° NNE 06:48:01 88° WNW 06:53:07 10° SSW visible
01 Dec 4.3 08:22:51 10° N 08:26:24 20° NW 08:29:58 10° W visible
01 Dec 4.8 18:04:47 10° SSW 18:09:27 36° W 18:14:09 10° NNW visible
02 Dec 3.8 06:06:06 10° NNE 06:11:04 50° E 06:15:59 10° S visible
02 Dec 3.6 07:45:26 10° N 07:49:56 32° WNW 07:54:25 10° WSW visible
02 Dec 6.1 19:10:21 10° WSW 19:12:24 12° W 19:14:28 10° WNW visible
03 Dec 5.0 05:29:37 10° NE 05:33:55 27° E 05:38:10 10° SSE visible
03 Dec 3.0 07:08:17 10° N 07:13:17 58° WNW 07:18:16 10° SW visible
03 Dec 5.5 18:30:58 10° SW 18:35:00 23° W 18:39:03 10° NW visible
04 Dec 5.8 04:53:51 10° NE 04:56:33 14° E 04:59:15 10° ESE visible
04 Dec 3.1 06:31:20 10° NNE 06:36:27 78° ESE 06:41:32 10° S visible
04 Dec 4.1 08:11:05 10° N 08:14:59 23° NW 08:18:53 10° WSW visible
04 Dec 4.4 17:52:58 10° S 17:57:48 43° W 18:02:41 10° NNW visible
05 Dec 4.2 05:54:37 10° NNE 05:59:27 41° E 06:04:14 10° SSE visible
05 Dec 3.4 07:33:46 10° N 07:38:28 38° WNW 07:43:09 10° SW visible
05 Dec 5.9 18:57:46 10° WSW 19:00:39 15° W 19:03:35 10° NW visible
06 Dec 5.3 05:18:17 10° NE 05:22:14 22° E 05:26:09 10° SE visible
06 Dec 2.9 06:56:41 10° NNE 07:01:46 70° WNW 07:06:48 10° SSW visible
06 Dec 4.5 08:36:56 10° NNW 08:39:58 16° NW 08:42:59 10° W visible
06 Dec 5.2 18:18:58 10° SSW 18:23:19 28° W 18:27:42 10° NNW visible
07 Dec 6.0 04:43:06 10° ENE 04:44:48 11° E 04:46:30 10° ESE visible
07 Dec 3.4 06:19:48 10° NNE 06:24:52 64° ESE 06:29:55 10° S visible
07 Dec 3.9 07:59:21 10° N 08:03:33 26° WNW 08:07:44 10° WSW visible
07 Dec 4.0 17:41:14 10° S 17:46:11 53° W 17:51:11 10° NNW visible
08 Dec 4.6 05:43:10 10° NNE 05:47:48 34° E 05:52:24 10° SSE visible
08 Dec 3.2 07:22:07 10° N 07:26:58 46° WNW 07:31:48 10° SW visible
08 Dec 5.8 18:45:27 10° SW 18:48:56 18° W 18:52:26 10° NW visible
09 Dec 5.5 05:07:01 10° NE 05:10:31 18° E 05:14:01 10° SE visible
09 Dec 2.9 06:45:05 10° NNE 06:50:13 84° WNW 06:55:18 10° SSW visible
09 Dec 4.3 08:25:06 10° N 08:28:33 19° NW 08:32:00 10° W visible
09 Dec 4.9 18:07:04 10° SSW 18:11:40 34° W 18:16:17 10° NNW visible
10 Dec 3.7 06:08:16 10° NNE 06:13:16 53° E 06:18:14 10° S visible
10 Dec 3.7 07:47:39 10° N 07:52:06 31° WNW 07:56:31 10° WSW visible
10 Dec 3.6 17:29:33 10° S 17:34:35 64° WSW 17:39:40 10° NNW visible
10 Dec 6.2 19:12:57 10° WSW 19:14:39 12° W 19:16:21 10° WNW visible
